Tracking 20083 objects as of 12-Dec-2019
HD Live streaming from Space Station
objects crossing your sky now

METEOR 2-17 DEB

Track METEOR 2-17 DEB now!
10-day predictions


NORAD ID: 38541
Int'l Code: 1988-005AU
Perigee: 910.6 km
Apogee: 918.0 km
Inclination: 82.5 °
Period: 103.1 minutes
Semi major axis: 7285 km
RCS: 0.003 m2 (small)
Launch date: January 30, 1988
Source: Commonwealth of Independent States (former USSR) (CIS)
Launch site: PLESETSK MISSILE AND SPACE COMPLEX (PKMTR)

Note: This is SATELLITE DEBRIS
aabbcc
Your satellite tracking list
Your tracking list is empty




NASA's NSSDC Master Catalog

Two Line Element Set (TLE):
1 38541U 88005AU  19344.37346097 +.00000485 +00000-0 +34231-3 0  9995
2 38541 082.5303 022.1068 0005078 187.4872 172.6220 13.96142407326154
Source of the keplerian elements: AFSPC